STARLINK-4404 (53195 NORAD) Tracking and Keplerian Element Data

This shows tracking and keplerian element data for the satellite.

Feedback or suggestion? Click here.




ElementValue
Catalog53195
NameSTARLINK-4404
Epoch Orbit1072
Epoch Day270.10935823
Epoch Year2022
RAAN330.0892
Inclination97.6537
Eccentricity0.00025
Argument of Perigee108.9561
Mean Anonmoly251.1934
Mean Motion15.00452509
Decay Rate-1.15E-06
L11 53195U 22084G 22270.10935823 -.00000115 00000+0 -44749-5 0 9994
L22 53195 97.6537 330.0892 0002500 108.9561 251.1934 15.00452509 10720

Live tracking and technical data element details for STARLINK-4404 (NORAD 53195). STARLINK-4404 can be tracked NOW for your location showing map with azimuth and elevation plus other details from your city location.

Track the satellite on the map from your city or location and see movement details for azimuth, elevation, latitude, longitude, range, height, and movement on the map or in text.







IsCatalogInMostPopularTable: catalog: 53195, numindb: 9
Update: records affected: 1



GetName: 53195 STARLINK-4404

Hit Count: updated at: Wed, 28 Sep 2022 23:25:37 GMT